Home   Weather   Viersen   Past weeks

Flag for Germany Past Weather in Viersen, North Rhine-Westphalia, Germany — Yesterday and Last 2 Weeks

Now
34 °F

Passing clouds.


Feels Like: 27 °F
Forecast: 26 / 38 °F
Wind: 8 mph from Southeast

Location: Monchengladbach Airport

Current Time: Dec 5, 2016 at 11:38:48 am

Latest Report: Dec 5, 2016 at 10:50 am


Visibility: N/A

Pressure: 30.33 "Hg

Humidity: 70%

Dew Point: 25 °F

Location of ViersenLocation

Past Weather in Viersen — Graph

°F

Viersen Temperature Yesterday

Maximum temperature yesterday: 39 °F (at 2:50 pm)
Minimum temperature yesterday: 19 °F (at 8:20 am)
Average temperature yesterday: 30 °F

High & Low Weather Summary for the Past Weeks

 TemperatureHumidityPressure
High57 °F (Nov 20, 12:50 pm)100% (Nov 23, 8:20 am)30.60 "Hg (Nov 23, 8:20 am)
Low19 °F (Nov 29, 7:50 am)52% (Nov 30, 1:20 pm)29.27 "Hg (Nov 20, 11:20 am)
Average42 °F80%30.14 "Hg
* Reported Nov 20 9:20 am — Dec 5 9:50 am, Viersen, Weather by CustomWeather, © 2016

Note: Actual official high and low records may vary slightly from our data, if they occured in-between our weather recording intervals... More about our weather records

Advertising

Viersen Weather History for the Previous 24 Hours

Scroll right to see more
 ConditionsComfort  
Time TempWeatherWind HumidityBarometerVisibility
9:50 am
Mon, Dec 5
32 °FPassing clouds.7 mph75%30.30 "HgN/A
9:20 am30 °FClear.6 mph75%30.30 "Hg10 mi
8:52 am30 °FPassing clouds.6 mph75%30.30 "HgN/A
8:20 am30 °FClear.6 mph75%30.30 "Hg10 mi
7:50 am30 °FPassing clouds.6 mph75%30.30 "HgN/A
8:20 pm
Sun, Dec 4
30 °FClear.7 mph80%30.33 "Hg10 mi
7:50 pm30 °FClear.6 mph86%30.33 "Hg10 mi
7:20 pm30 °FClear.7 mph86%30.33 "Hg10 mi
6:50 pm30 °FClear.6 mph86%30.33 "Hg10 mi
6:20 pm30 °FClear.5 mph93%30.33 "Hg10 mi
5:50 pm32 °FClear.5 mph87%30.33 "Hg10 mi
5:20 pm30 °FClear.2 mph93%30.33 "Hg10 mi
4:50 pm30 °FClear.3 mph93%30.33 "Hg10 mi
4:20 pm34 °FClear.1 mph87%30.33 "Hg10 mi
3:50 pm37 °FClear.2 mph70%30.33 "Hg10 mi
3:20 pm37 °FClear.3 mph75%30.30 "Hg10 mi
2:50 pm39 °FClear.3 mph65%30.33 "Hg10 mi
2:20 pm37 °FPassing clouds.6 mph93%30.33 "HgN/A
1:50 pm37 °FClear.6 mph100%30.33 "Hg10 mi
1:20 pm36 °FClear.6 mph100%30.33 "Hg10 mi
12:50 pm32 °FClear.7 mph100%30.33 "Hg10 mi
12:20 pm32 °FClear.6 mph100%30.33 "Hg10 mi
11:50 am30 °FClear.5 mph100%30.36 "Hg10 mi
11:20 am30 °FClear.3 mph100%30.36 "Hg10 mi
Weather by CustomWeather, © 2016

See weather overviewHow to use our weather pages